アトラス彗星

C/2024 G2 ( ATLAS )

English version
Home page
Updated on May 3, 2025

---------------------------------------------------------------------

・ プロフィール

発見日 2024年4月8日
発見光度 18.6等
発見者 Asteroid Terrestrial-Impact Last Alert System (ATLAS) search program

・ 写真集

・ 軌道要素

Epoch 2025 May 5.0 TT = JDT 2460800.5
T 2025 June 13.51135 TT                                 Pike
q   5.3482757            (2000.0)            P               Q
z  +0.0013726      Peri.  328.73395     -0.88643982     -0.44516431
 +/-0.0000083      Node   171.39565     +0.04178550     +0.19565624
e   0.9926589      Incl.  122.12676     -0.46095382     +0.87381198
From 113 observations 2024 Apr. 8-2025 Feb. 26, mean residual 0".5.

・ 光度変化

        m1 = 6.5 + 5 logΔ + 10.0 log r

---------------------------------------------------------------------

軌道要素はM.P.E.C. 2025-D254に掲載されたものです。
光度グラフはComet for Windowsで作成したものです。

---------------------------------------------------------------------

Copyright(C) Seiichi Yoshida (comet@aerith.net). All rights reserved.